Total_Precipitation_Accumulation
1.92 2.30 2.66 3.13 3.58 4.07 4.79 5.41 5.83 5.83 5.67 5.35 4.98 4.72 4.22 3.86 3.59 3.30 3.09 2.88 2.61 2.53 2.89 2.64 2.90 2.78 2.68 2.52 2.46 2.58 2.64 2.38 2.60 2.81 2.35 1.85 1.57 1.51 1.42 1.42 1.49 1.43 1.51
1.87 2.23 2.73 3.03 3.39 3.89 4.44 4.85 4.85 4.53 4.42 4.46 4.37 4.13 4.11 3.91 3.78 3.50 3.29 2.90 2.73 2.63 2.49 2.67 2.48 2.44 2.52 2.33 2.23 2.43 2.43 2.18 2.51 2.65 2.64 2.06 1.81 1.56 1.15 1.28 1.42 1.51 1.70
1.51 1.85 2.40 2.71 2.91 3.39 3.70 3.73 3.62 3.45 3.51 3.59 3.59 3.67 3.85 3.84 3.78 3.62 3.35 3.05 2.91 2.81 2.69 2.57 2.38 2.31 2.14 2.21 2.26 2.32 2.37 2.30 2.29 2.35 2.59 2.22 1.84 1.56 1.20 1.20 1.43 1.74 1.95
1.27 1.57 1.90 2.13 2.40 2.64 2.74 2.73 2.81 2.83 2.87 2.95 3.00 2.89 2.89 3.06 3.27 3.48 3.53 3.44 3.19 2.95 2.68 2.51 2.29 2.12 1.99 2.19 1.91 2.00 2.30 2.42 2.16 2.17 2.16 2.08 2.16 2.06 1.67 1.34 1.27 1.54 1.74
1.29 1.50 1.60 1.77 1.86 1.88 1.98 2.05 2.34 2.66 2.79 2.88 2.99 2.89 2.59 2.56 2.60 2.73 2.89 2.89 2.85 2.69 2.39 2.29 2.21 2.07 1.95 1.95 1.91 2.18 2.19 2.18 2.13 2.20 2.18 2.27 2.40 2.23 2.06 1.72 1.62 1.73 1.73
1.00 1.23 1.49 1.57 1.52 1.48 1.63 1.84 2.14 2.56 2.80 2.87 2.81 2.76 2.65 2.61 2.53 2.53 2.57 2.44 2.41 2.34 2.18 2.10 2.16 2.02 1.90 1.90 1.90 2.03 2.10 2.21 2.30 2.32 2.31 2.36 2.34 2.34 2.53 2.21 2.00 1.95 1.71
0.76 0.78 0.96 1.22 1.18 1.13 1.29 1.56 1.76 2.09 2.33 2.43 2.40 2.31 2.42 2.51 2.39 2.25 2.18 2.10 1.98 1.90 1.90 1.97 2.08 1.92 1.86 1.93 2.07 2.07 2.04 2.19 2.29 2.24 2.32 2.40 2.34 2.46 2.63 2.56 2.24 2.04 1.82
0.57 0.55 0.63 0.79 1.01 1.00 1.05 1.17 1.42 1.67 1.88 1.93 2.03 2.13 2.28 2.37 2.32 2.46 2.26 2.10 1.82 1.68 1.74 1.94 2.00 1.93 1.86 1.84 2.19 2.18 2.19 2.28 2.27 2.16 2.45 2.50 2.30 2.51 2.72 2.82 2.83 2.51 2.34
0.47 0.47 0.55 0.75 0.78 0.75 0.81 0.92 1.16 1.35 1.51 1.63 1.78 1.86 1.84 1.87 2.01 2.19 2.19 2.03 1.94 1.75 1.82 1.89 2.07 2.15 2.22 2.24 2.38 2.31 2.31 2.49 2.46 2.41 2.57 2.57 2.44 2.48 2.61 2.85 3.05 3.05 2.85
0.47 0.45 0.47 0.56 0.57 0.56 0.70 0.93 1.11 1.15 1.36 1.65 1.81 1.73 1.75 1.71 1.86 1.88 1.90 1.94 1.87 1.86 1.90 1.91 1.98 2.12 2.24 2.29 2.43 2.42 2.48 2.66 2.67 2.72 2.80 2.68 2.45 2.56 2.62 2.76 3.03 3.27 3.30
0.48 0.48 0.46 0.47 0.58 0.52 0.62 0.79 0.92 1.06 1.34 1.64 1.86 1.88 1.76 1.76 1.84 1.75 1.71 1.83 1.86 1.85 1.89 1.90 1.87 1.87 2.02 2.23 2.42 2.40 2.56 2.69 2.74 2.73 2.64 2.52 2.56 2.72 2.66 2.79 2.94 3.15 3.36
0.40 0.38 0.35 0.41 0.42 0.42 0.54 0.82 1.14 1.48 1.64 1.90 2.17 2.21 1.96 1.74 1.65 1.53 1.53 1.70 1.89 1.90 1.87 1.85 1.83 1.80 1.90 2.16 2.34 2.46 2.71 2.83 2.75 2.66 2.61 2.49 2.60 2.71 2.68 2.75 2.76 2.82 3.10
0.43 0.42 0.38 0.47 0.44 0.43 0.45 0.58 0.73 1.07 1.38 1.72 2.01 2.01 1.76 1.55 1.51 1.51 1.56 1.69 1.83 1.83 1.79 1.81 1.87 2.00 2.12 2.32 2.44 2.55 2.72 2.68 2.58 2.60 2.52 2.41 2.48 2.44 2.50 2.54 2.53 2.53 2.63
0.54 0.50 0.47 0.46 0.45 0.45 0.43 0.53 0.61 0.70 0.91 1.31 1.59 1.59 1.44 1.39 1.40 1.46 1.49 1.49 1.53 1.59 1.64 1.85 2.08 2.24 2.37 2.46 2.51 2.51 2.49 2.48 2.40 2.30 2.22 2.22 2.32 2.39 2.38 2.31 2.31 2.37 2.52
0.56 0.53 0.52 0.56 0.56 0.61 0.61 0.60 0.62 0.66 0.84 1.23 1.42 1.38 1.34 1.35 1.31 1.31 1.40 1.47 1.52 1.57 1.78 1.95 2.05 2.10 2.16 2.24 2.35 2.35 2.30 2.27 2.19 2.06 1.87 1.90 2.19 2.31 2.29 2.13 2.21 2.29 2.40
0.55 0.52 0.46 0.55 0.62 0.67 0.69 0.68 0.70 0.73 0.86 1.13 1.35 1.34 1.31 1.28 1.21 1.26 1.34 1.49 1.60 1.76 1.93 1.95 1.93 1.89 1.64 1.74 1.86 1.92 1.96 1.98 1.94 1.81 1.73 1.74 1.83 1.85 1.90 1.91 1.92 1.96 2.04
0.53 0.53 0.56 0.66 0.84 0.76 0.77 0.83 0.78 0.79 0.92 1.15 1.32 1.38 1.33 1.33 1.30 1.27 1.42 1.62 1.79 1.95 2.07 2.04 1.97 1.85 1.76 1.66 1.55 1.55 1.63 1.76 1.77 1.77 1.82 1.61 1.46 1.57 1.60 1.72 1.71 1.64 1.70
0.62 0.70 0.67 0.74 0.82 0.80 0.83 0.87 0.88 0.90 1.01 1.19 1.38 1.44 1.38 1.43 1.51 1.50 1.59 1.83 2.05 2.19 2.22 2.18 2.08 1.99 1.92 1.83 1.64 1.62 1.56 1.67 1.70 1.70 1.72 1.66 1.56 1.54 1.64 1.71 1.66 1.52 1.46
0.72 0.79 0.86 0.89 0.96 0.97 0.92 0.94 1.06 1.08 1.16 1.24 1.41 1.51 1.55 1.62 1.64 1.68 1.86 2.09 2.27 2.31 2.30 2.33 2.23 2.15 2.18 2.02 1.67 1.51 1.47 1.63 1.67 1.67 1.60 1.56 1.52 1.56 1.44 1.42 1.45 1.44 1.41
0.89 0.87 0.93 0.97 1.01 1.04 1.09 1.12 1.22 1.34 1.46 1.55 1.64 1.83 2.02 2.19 2.24 2.26 2.31 2.35 2.45 2.41 2.41 2.35 2.32 2.22 2.18 2.08 1.58 1.34 1.33 1.52 1.58 1.65 1.61 1.50 1.37 1.35 1.23 1.23 1.38 1.36 1.34
0.85 0.92 0.91 1.00 1.09 1.11 1.22 1.40 1.48 1.59 1.73 1.88 1.96 2.15 2.45 2.62 2.62 2.61 2.53 2.45 2.47 2.50 2.48 2.36 2.28 2.22 2.13 2.02 1.61 1.41 1.42 1.58 1.67 1.65 1.61 1.55 1.41 1.22 1.16 1.13 1.19 1.25 1.21
0.78 0.89 0.93 0.98 1.16 1.39 1.58 1.83 1.94 1.92 2.03 2.17 2.31 2.49 2.70 2.64 2.58 2.76 2.68 2.64 2.70 2.67 2.53 2.39 2.27 2.27 2.21 2.02 1.71 1.47 1.51 1.65 1.76 1.83 1.78 1.69 1.46 1.22 1.12 1.05 1.05 1.02 0.95
0.75 0.84 0.92 1.04 1.21 1.48 1.86 2.11 2.17 2.27 2.31 2.39 2.53 2.61 2.67 2.81 2.95 3.02 2.92 2.81 2.76 2.67 2.46 2.32 2.18 2.10 2.15 2.17 1.78 1.50 1.53 1.61 1.65 1.82 1.85 1.59 1.34 1.17 1.01 0.99 0.98 0.88 0.82
0.80 0.84 0.93 1.10 1.35 1.58 1.89 2.06 2.12 2.16 2.20 2.24 2.25 2.34 2.48 2.61 2.71 2.95 3.01 2.91 2.76 2.65 2.55 2.43 2.25 2.13 2.15 2.15 1.82 1.51 1.48 1.55 1.53 1.60 1.67 1.52 1.33 1.18 1.05 1.00 0.95 0.89 0.91
0.83 0.90 0.99 1.11 1.25 1.45 1.66 1.77 1.92 2.01 2.16 2.21 2.15 2.11 2.14 2.28 2.40 2.52 2.61 2.57 2.54 2.36 2.24 2.11 2.01 1.97 1.99 1.97 1.72 1.52 1.49 1.59 1.63 1.59 1.60 1.59 1.45 1.32 1.21 1.17 1.20 1.21 1.16
0.82 0.91 1.02 1.15 1.25 1.41 1.62 1.71 1.85 1.93 2.01 2.04 1.97 1.97 1.96 2.04 2.10 2.11 2.05 1.88 1.79 1.64 1.49 1.42 1.36 1.36 1.42 1.55 1.39 1.27 1.33 1.47 1.53 1.42 1.41 1.52 1.52 1.45 1.37 1.30 1.30 1.28 1.22